User: anonymous   Login
Location: Long Point Provincial Park
(42.5794°N, 80.4103°W)
Time: 11:49:40
(UTC-04:00)
Language:

Iridium 19 - Orbit

View from above orbital plane
View from above orbital plane
View from above satellite
View from above satellite

Ground track
Ground track

The orbit data is extracted from the following two-line orbital elements,

1 24965U 97056A   14296.29361634  .00000625  00000-0  21615-3 0  9877
2 24965 086.3990 003.2787 0002288 109.6101 250.5342 14.34219890893820
Epoch (UTC): 23 October 2014 07:02:48
Eccentricity: 0.0002288
inclination: 86.3990°
perigee height: 776 km
apogee height: 779 km
right ascension of ascending node: 3.2787°
argument of perigee: 109.6101°
revolutions per day: 14.34219890
mean anomaly at epoch: 250.5342°
orbit number at epoch: 89382

The dashed part of the orbit path shows where the satellite is in the earth's shadow,  

DLR